Time[GMT],salinity[psu](2m),sigma_t[kg/m^3](2m),conductivity[msiemens/cm](2m),temperature[C](2m)
2018-07-20 14:40,31.722,24.074,36.479,11.84
2018-07-20 15:00,31.707,24.017,36.682,12.09
2018-07-20 15:20,31.660,23.942,36.812,12.29
2018-07-20 15:40,31.677,23.952,36.848,12.31
2018-07-20 16:00,31.688,23.976,36.787,12.23
2018-07-20 16:20,31.609,23.853,36.993,12.56
2018-07-20 16:40,31.644,23.932,36.788,12.28
2018-07-20 17:00,31.729,24.022,36.759,12.15
2018-07-20 17:20,31.770,24.057,36.789,12.14
2018-07-20 17:40,31.822,24.146,36.610,11.87
2018-07-20 18:00,31.766,24.068,36.716,12.06
2018-07-20 18:20,31.758,23.966,37.159,12.57
2018-07-20 18:40,31.709,23.902,37.230,12.71
2018-07-20 19:00,31.825,24.103,36.827,12.12
2018-07-20 19:20,31.687,23.972,36.799,12.25
2018-07-20 19:40,31.722,23.953,37.052,12.49
2018-07-20 20:00,31.785,23.906,37.561,12.99
2018-07-20 20:20,31.814,24.064,36.962,12.28
2018-07-20 20:40,31.816,24.061,36.986,12.31
2018-07-20 21:00,31.848,24.104,36.932,12.21
2018-07-20 21:20,31.840,24.120,36.821,12.09
2018-07-20 21:40,31.818,24.144,36.601,11.87
2018-07-20 22:00,31.335,23.379,37.881,13.89
2018-07-20 22:20,31.955,24.368,36.162,11.21
2018-07-20 22:40,31.926,24.327,36.225,11.32
2018-07-20 23:00,31.900,24.285,36.307,11.44
2018-07-20 23:20,31.912,24.295,36.316,11.44
2018-07-20 23:40,31.871,24.188,36.639,11.85
2018-07-21 00:00,31.837,24.115,36.827,12.10
2018-07-21 00:20,31.894,24.218,36.605,11.78
2018-07-21 00:40,31.906,24.231,36.601,11.77
2018-07-21 01:00,31.885,24.216,36.570,11.76
2018-07-21 01:20,31.879,24.187,36.681,11.89
2018-07-21 01:40,31.811,24.138,36.594,11.87
2018-07-21 02:00,31.781,24.104,36.615,11.93
2018-07-21 02:20,31.733,24.096,36.422,11.77
2018-07-21 02:40,31.777,24.117,36.533,11.84
2018-07-21 03:00,31.728,24.011,36.805,12.20
2018-07-21 03:20,31.767,24.079,36.672,12.01
2018-07-21 03:40,31.770,24.093,36.613,11.94
2018-07-21 04:00,31.734,24.033,36.731,12.11
2018-07-21 04:20,31.707,24.020,36.664,12.07
2018-07-21 04:40,31.748,24.046,36.737,12.10
2018-07-21 05:00,31.774,24.062,36.782,12.12
2018-07-21 05:20,31.795,24.068,36.853,12.18
2018-07-21 05:40,31.740,24.030,36.773,12.15
2018-07-21 06:00,31.830,24.098,36.880,12.17
2018-07-21 06:20,31.616,23.800,37.267,12.86
2018-07-21 06:40,31.672,23.875,37.185,12.70
2018-07-21 07:00,31.697,23.976,36.828,12.27
2018-07-21 07:20,31.841,24.166,36.605,11.85
2018-07-21 07:40,31.875,24.221,36.501,11.69
2018-07-21 08:00,31.839,24.203,36.413,11.63
2018-07-21 08:20,31.843,24.187,36.510,11.74
2018-07-21 08:40,31.842,24.227,36.312,11.51
2018-07-21 09:00,31.835,24.197,36.426,11.65
2018-07-21 09:20,31.896,24.284,36.295,11.43
2018-07-21 09:40,31.906,24.301,36.257,11.38
2018-07-21 10:00,31.936,24.358,36.116,11.18
2018-07-21 10:20,31.947,24.384,36.041,11.09
2018-07-21 10:40,31.941,24.373,36.067,11.12
2018-07-21 11:00,31.973,24.429,35.944,10.94
2018-07-21 11:20,31.933,24.359,36.101,11.17
2018-07-21 11:40,31.980,24.437,35.938,10.93
2018-07-21 12:00,31.962,24.424,35.919,10.93
2018-07-21 12:20,31.988,24.460,35.863,10.84
2018-07-21 12:40,31.984,24.423,36.034,11.03
2018-07-21 13:00,31.979,24.395,36.149,11.17
2018-07-21 13:20,31.941,24.325,36.307,11.39
2018-07-21 13:40,31.861,24.221,36.436,11.63
2018-07-21 14:00,31.830,24.170,36.534,11.78
2018-07-21 14:20,31.784,24.087,36.709,12.03
2018-07-21 14:40,31.819,24.163,36.515,11.77
2018-07-21 15:00,31.805,24.143,36.540,11.81
2018-07-21 15:20,31.777,24.022,36.986,12.35
2018-07-21 15:40,31.760,23.941,37.287,12.71
2018-07-21 16:00,31.765,23.914,37.431,12.87
2018-07-21 16:20,31.744,23.869,37.541,13.02
2018-07-21 16:40,31.772,23.883,37.612,13.06
2018-07-21 17:00,31.800,23.964,37.364,12.75
2018-07-21 17:20,31.874,24.073,37.205,12.48
2018-07-21 17:40,31.899,24.072,37.324,12.59
2018-07-21 18:00,31.759,23.919,37.382,12.82
2018-07-21 18:20,31.829,23.980,37.425,12.78
2018-07-21 18:40,32.013,24.120,37.629,12.80
2018-07-21 19:00,31.764,23.741,38.212,13.74
2018-07-21 19:20,31.844,24.050,37.170,12.48
2018-07-21 19:40,31.818,24.038,37.105,12.44
2018-07-21 20:00,31.863,24.157,36.752,11.99
2018-07-21 20:20,31.867,24.183,36.648,11.86
2018-07-21 20:40,31.917,24.277,36.429,11.56
2018-07-21 21:00,31.993,24.300,36.683,11.76
2018-07-21 21:20,31.837,24.133,36.742,12.01
2018-07-21 21:40,31.851,24.092,37.005,12.29
2018-07-21 22:00,31.873,24.139,36.885,12.12
2018-07-21 22:20,31.883,24.141,36.922,12.15
2018-07-21 22:40,31.831,23.999,37.350,12.70
2018-07-21 23:00,31.991,24.344,36.459,11.51
2018-07-21 23:20,31.953,24.352,36.231,11.29
2018-07-21 23:40,31.985,24.397,36.167,11.18
2018-07-22 00:00,32.006,24.453,35.987,10.96
2018-07-22 00:20,31.940,24.301,36.426,11.53
2018-07-22 00:40,31.828,24.195,36.397,11.63
2018-07-22 01:00,31.997,24.381,36.305,11.33
2018-07-22 01:20,31.956,24.287,36.571,11.67
2018-07-22 01:40,31.966,24.308,36.513,11.60
2018-07-22 02:00,31.939,24.263,36.605,11.73
2018-07-22 02:20,31.911,24.132,37.097,12.32
2018-07-22 02:40,31.837,24.067,37.057,12.36
2018-07-22 03:00,31.872,24.144,36.857,12.09
2018-07-22 03:20,31.834,24.097,36.898,12.19
2018-07-22 03:40,31.783,24.064,36.814,12.15
2018-07-22 04:00,31.835,24.127,36.760,12.03
2018-07-22 04:20,31.753,24.033,36.823,12.20
2018-07-22 04:40,31.753,23.997,36.992,12.39
2018-07-22 05:00,31.760,24.013,36.949,12.33
2018-07-22 05:20,31.762,23.987,37.080,12.48
2018-07-22 05:40,31.714,23.935,37.095,12.55
2018-07-22 06:00,31.796,24.021,37.077,12.43
2018-07-22 06:20,31.779,24.028,36.969,12.33
2018-07-22 06:40,31.884,24.184,36.720,11.93
2018-07-22 07:00,31.882,24.214,36.565,11.75
2018-07-22 07:20,31.796,24.065,36.870,12.20
2018-07-22 07:40,31.702,23.958,36.938,12.39
2018-07-22 08:00,31.741,24.027,36.794,12.18
2018-07-22 08:20,31.881,24.209,36.586,11.78
2018-07-22 08:40,31.848,24.163,36.653,11.89
2018-07-22 09:00,31.850,24.155,36.702,11.94
2018-07-22 09:20,31.893,24.236,36.512,11.68
2018-07-22 09:40,31.863,24.182,36.633,11.85
2018-07-22 10:00,31.854,24.176,36.620,11.85
2018-07-22 10:20,31.882,24.226,36.511,11.69
2018-07-22 10:40,31.847,24.173,36.597,11.83
2018-07-22 11:00,31.854,24.171,36.638,11.87
2018-07-22 11:20,31.859,24.175,36.645,11.87
2018-07-22 11:40,31.969,24.369,36.226,11.27
2018-07-22 12:00,31.965,24.387,36.115,11.15
2018-07-22 12:20,31.954,24.339,36.305,11.37
2018-07-22 12:40,31.989,24.428,36.027,11.02
2018-07-22 13:00,31.988,24.422,36.058,11.06
2018-07-22 13:20,31.989,24.385,36.244,11.27
2018-07-22 13:40,31.905,24.245,36.527,11.68
2018-07-22 14:00,31.983,24.286,36.703,11.79
2018-07-22 14:20,31.819,24.109,36.770,12.06
2018-07-22 14:40,31.871,24.175,36.705,11.92
2018-07-22 15:00,31.812,24.088,36.836,12.14
2018-07-22 15:20,31.809,24.081,36.856,12.17
2018-07-22 15:40,31.808,24.089,36.818,12.12
2018-07-22 16:00,31.772,24.043,36.860,12.22
2018-07-22 16:20,31.802,24.090,36.783,12.09
2018-07-22 16:40,31.767,24.048,36.817,12.17
2018-07-22 17:00,31.676,23.786,37.609,13.17
2018-07-22 17:20,31.750,23.857,37.625,13.10
2018-07-22 17:40,31.771,23.904,37.508,12.95
2018-07-22 18:00,31.805,23.937,37.511,12.91
2018-07-22 18:20,31.860,23.968,37.623,12.97
2018-07-22 18:40,31.845,23.941,37.679,13.05
2018-07-22 19:00,31.679,23.887,37.156,12.66
2018-07-22 19:20,31.866,24.007,37.471,12.79
2018-07-22 19:40,31.882,24.053,37.330,12.61
2018-07-22 20:00,31.657,23.793,37.488,13.06
2018-07-22 20:20,31.851,24.038,37.258,12.57
2018-07-22 20:40,31.875,24.109,37.033,12.29
2018-07-22 21:00,31.874,24.100,37.077,12.34
2018-07-22 21:20,31.692,23.939,36.978,12.44
2018-07-22 21:40,31.834,24.121,36.787,12.06
2018-07-22 22:00,31.879,24.204,36.603,11.80
2018-07-22 22:20,31.851,24.120,36.873,12.14
2018-07-22 22:40,31.841,24.082,37.004,12.30
2018-07-22 23:00,31.853,24.122,36.869,12.13
2018-07-22 23:20,31.845,24.080,37.034,12.33
2018-07-22 23:40,31.856,24.082,37.072,12.36
2018-07-23 00:00,31.822,23.982,37.385,12.75
2018-07-23 00:20,31.847,24.182,36.557,11.78
2018-07-23 00:40,31.953,24.290,36.538,11.64
2018-07-23 01:00,31.946,24.319,36.362,11.45
2018-07-23 01:20,31.982,24.404,36.114,11.13
2018-07-23 01:40,31.995,24.407,36.168,11.17
2018-07-23 02:00,31.910,24.246,36.548,11.70
2018-07-23 02:20,31.954,24.271,36.634,11.75
2018-07-23 02:40,31.972,24.265,36.752,11.86
2018-07-23 03:00,31.910,24.192,36.807,11.99
2018-07-23 03:20,31.755,23.960,37.173,12.59
2018-07-23 03:40,31.829,24.057,37.066,12.38
2018-07-23 04:00,31.827,24.064,37.020,12.33
2018-07-23 04:20,31.804,24.041,37.024,12.36
2018-07-23 04:40,31.830,24.077,36.978,12.28
2018-07-23 05:00,31.782,24.029,36.976,12.33
2018-07-23 05:20,31.801,24.044,36.996,12.33
2018-07-23 05:40,31.594,23.805,37.146,12.75
2018-07-23 06:00,31.751,23.980,37.064,12.47
2018-07-23 06:20,31.770,23.997,37.074,12.46
2018-07-23 06:40,31.666,23.809,37.462,13.02
2018-07-23 07:00,31.646,23.788,37.465,13.05
2018-07-23 07:20,31.635,23.786,37.420,13.01
2018-07-23 07:40,31.685,23.862,37.303,12.82
2018-07-23 08:00,31.701,23.896,37.223,12.71
2018-07-23 08:20,31.623,23.821,37.205,12.78
2018-07-23 08:40,31.739,23.967,37.069,12.49
2018-07-23 09:00,31.787,24.013,37.077,12.44
2018-07-23 09:20,31.774,24.005,37.051,12.43
2018-07-23 09:40,31.793,24.031,37.020,12.37
2018-07-23 10:00,31.774,24.011,37.023,12.40
2018-07-23 10:20,31.804,24.055,36.960,12.29
2018-07-23 10:40,31.783,24.046,36.903,12.25
2018-07-23 11:00,31.840,24.131,36.768,12.03
2018-07-23 11:20,31.878,24.206,36.588,11.78
2018-07-23 11:40,31.888,24.227,36.530,11.71
2018-07-23 12:00,31.904,24.242,36.536,11.69
2018-07-23 12:20,31.892,24.244,36.468,11.63
2018-07-23 12:40,31.914,24.254,36.523,11.67
2018-07-23 13:00,31.899,24.238,36.535,11.70
2018-07-23 13:20,31.924,24.296,36.366,11.48
2018-07-23 13:40,31.909,24.245,36.547,11.70
2018-07-23 14:00,31.978,24.338,36.425,11.48
2018-07-23 14:20,31.890,24.175,36.794,12.00
2018-07-23 14:40,31.890,24.203,36.660,11.85
2018-07-23 15:00,31.778,24.074,36.742,12.07
2018-07-23 15:20,31.873,24.217,36.507,11.70
2018-07-23 15:40,31.763,24.037,36.850,12.21
2018-07-23 16:00,31.795,24.047,36.953,12.29
2018-07-23 16:20,31.880,24.169,36.773,11.99
2018-07-23 16:40,31.834,24.117,36.805,12.08
2018-07-23 17:00,31.853,24.141,36.777,12.03
2018-07-23 17:20,31.821,24.103,36.807,12.10
2018-07-23 17:40,31.762,23.994,37.049,12.44
2018-07-23 18:00,31.802,24.033,37.052,12.40
2018-07-23 18:20,31.750,23.955,37.173,12.59
2018-07-23 18:40,31.779,23.982,37.182,12.57
2018-07-23 19:00,31.789,24.000,37.144,12.52
2018-07-23 19:20,31.789,24.001,37.139,12.51
2018-07-23 19:40,31.800,24.010,37.150,12.51
2018-07-23 20:00,31.793,24.000,37.162,12.53
2018-07-23 20:20,31.900,24.140,37.006,12.23
2018-07-23 20:40,31.821,24.044,37.087,12.41
2018-07-23 21:00,31.559,23.666,37.616,13.32
2018-07-23 21:20,31.804,24.003,37.201,12.56
2018-07-23 21:40,31.816,24.032,37.121,12.46
2018-07-23 22:00,31.825,24.042,37.119,12.44
2018-07-23 22:20,31.818,23.978,37.379,12.75
2018-07-23 22:40,31.825,24.073,36.973,12.28
2018-07-23 23:00,31.875,24.151,36.838,12.07
2018-07-23 23:20,31.798,24.059,36.910,12.24
2018-07-23 23:40,31.892,24.198,36.692,11.89
2018-07-24 00:00,31.899,24.221,36.614,11.79
2018-07-24 00:20,31.916,24.238,36.611,11.77
2018-07-24 00:40,31.936,24.298,36.419,11.52
2018-07-24 01:00,31.973,24.368,36.252,11.29
2018-07-24 01:20,31.965,24.358,36.260,11.31
2018-07-24 01:40,31.928,24.286,36.434,11.55
2018-07-24 02:00,31.983,24.368,36.301,11.34
2018-07-24 02:20,31.949,24.341,36.272,11.34
2018-07-24 02:40,31.963,24.369,36.199,11.24
2018-07-24 03:00,31.973,24.371,36.238,11.28
2018-07-24 03:20,31.926,24.264,36.537,11.67
2018-07-24 03:40,31.891,24.204,36.657,11.85
2018-07-24 04:00,31.869,24.144,36.842,12.08
2018-07-24 04:20,31.779,24.023,36.995,12.36
2018-07-24 04:40,31.844,24.114,36.866,12.14
2018-07-24 05:00,31.801,24.077,36.841,12.16
2018-07-24 05:20,31.728,24.015,36.790,12.19
2018-07-24 05:40,31.736,23.984,36.971,12.38
2018-07-24 06:00,31.778,24.023,36.986,12.35
2018-07-24 06:20,31.612,23.792,37.290,12.89
2018-07-24 06:40,31.725,23.861,37.494,12.98
2018-07-24 07:00,31.750,23.969,37.109,12.52
2018-07-24 07:20,31.713,23.911,37.205,12.67
2018-07-24 07:40,31.659,23.855,37.213,12.75
2018-07-24 08:00,31.743,23.976,37.041,12.45
2018-07-24 08:20,31.816,24.070,36.943,12.26
2018-07-24 08:40,31.782,24.032,36.963,12.32
2018-07-24 09:00,31.667,23.860,37.226,12.75
2018-07-24 09:20,31.619,23.817,37.206,12.79
2018-07-24 09:40,31.731,23.920,37.250,12.70
2018-07-24 10:00,31.711,23.878,37.347,12.84
2018-07-24 10:20,31.808,24.056,36.973,12.30
2018-07-24 10:40,31.808,24.064,36.937,12.26
2018-07-24 11:00,31.821,24.118,36.738,12.02
2018-07-24 11:20,31.862,24.177,36.649,11.87
2018-07-24 11:40,31.874,24.176,36.712,11.93
2018-07-24 12:00,31.898,24.225,36.590,11.76
2018-07-24 12:20,31.893,24.208,36.649,11.83
2018-07-24 12:40,31.834,24.112,36.829,12.11
2018-07-24 13:00,31.830,24.107,36.834,12.12
2018-07-24 13:20,31.847,24.119,36.856,12.12
2018-07-24 13:40,31.954,24.330,36.347,11.42
2018-07-24 14:00,31.972,24.374,36.219,11.26
2018-07-24 14:20,31.996,24.402,36.192,11.20
2018-07-24 14:40,32.000,24.394,36.254,11.26
2018-07-24 15:00,32.003,24.366,36.405,11.43
2018-07-24 15:20,31.997,24.375,36.334,11.36
2018-07-24 15:40,31.925,24.222,36.736,11.90
2018-07-24 16:00,31.925,24.245,36.621,11.77
2018-07-24 16:20,31.881,24.117,37.024,12.27
2018-07-24 16:40,31.919,24.162,36.993,12.19
2018-07-24 17:00,31.842,24.026,37.272,12.60
2018-07-24 17:20,31.709,23.954,36.989,12.43
2018-07-24 17:40,31.782,23.988,37.168,12.55
2018-07-24 18:00,31.762,23.980,37.114,12.51
2018-07-24 18:20,31.792,24.010,37.112,12.48
2018-07-24 18:40,31.801,24.021,37.101,12.45
2018-07-24 19:00,31.805,24.037,37.044,12.38
2018-07-24 19:20,31.690,23.909,37.108,12.59
2018-07-24 19:40,31.751,23.948,37.214,12.64
2018-07-24 20:00,31.778,23.990,37.141,12.52
2018-07-24 20:20,31.761,23.965,37.180,12.59
2018-07-24 20:40,31.819,24.051,37.044,12.37
2018-07-24 21:00,31.862,24.095,37.040,12.31
2018-07-24 21:20,31.835,24.065,37.056,12.36
2018-07-24 21:40,31.794,24.006,37.143,12.51
2018-07-24 22:00,31.657,23.803,37.444,13.01
2018-07-24 22:20,31.790,23.970,37.290,12.68
2018-07-24 22:40,31.790,23.965,37.316,12.71
2018-07-24 23:00,31.822,24.068,36.979,12.29
2018-07-24 23:20,31.842,24.107,36.895,12.17
2018-07-24 23:40,31.865,24.129,36.895,12.15
2018-07-25 00:00,31.900,24.198,36.730,11.92
2018-07-25 00:20,31.808,24.111,36.710,12.00
2018-07-25 00:40,31.903,24.192,36.775,11.97
2018-07-25 01:00,31.924,24.258,36.554,11.69
2018-07-25 01:20,31.906,24.234,36.583,11.75
2018-07-25 01:40,31.923,24.252,36.577,11.72
2018-07-25 02:00,31.934,24.254,36.624,11.76
2018-07-25 02:20,31.973,24.360,36.295,11.34
2018-07-25 02:40,31.997,24.394,36.237,11.25
2018-07-25 03:00,32.002,24.403,36.223,11.23
2018-07-25 03:20,32.000,24.407,36.189,11.19
2018-07-25 03:40,31.983,24.390,36.195,11.22
2018-07-25 04:00,31.960,24.329,36.383,11.46
2018-07-25 04:20,31.920,24.213,36.752,11.92
2018-07-25 04:40,31.928,24.223,36.746,11.90
2018-07-25 05:00,31.888,24.169,36.812,12.02
2018-07-25 05:20,31.895,24.172,36.827,12.03
2018-07-25 05:40,31.904,24.153,36.963,12.18
2018-07-25 06:00,31.822,24.069,36.974,12.28
2018-07-25 06:20,31.791,24.031,37.009,12.36
2018-07-25 06:40,31.742,23.969,37.071,12.49
2018-07-25 07:00,31.694,23.890,37.216,12.71
2018-07-25 07:20,31.727,23.900,37.322,12.79
2018-07-25 07:40,31.722,23.907,37.266,12.73
2018-07-25 08:00,31.691,23.854,37.368,12.88
2018-07-25 08:20,31.749,23.950,37.194,12.62
2018-07-25 08:40,31.787,24.011,37.086,12.45
2018-07-25 09:00,31.777,24.003,37.073,12.45
2018-07-25 09:20,31.863,24.123,36.913,12.17
2018-07-25 09:40,31.793,24.026,37.044,12.40
2018-07-25 10:00,31.885,24.169,36.794,12.01
2018-07-25 10:20,31.820,24.060,37.009,12.33
2018-07-25 10:40,31.720,23.842,37.556,13.06
2018-07-25 11:00,31.894,24.141,36.974,12.20
2018-07-25 11:20,31.896,24.195,36.727,11.92
2018-07-25 11:40,31.873,24.177,36.707,11.92
2018-07-25 12:00,31.844,24.132,36.779,12.04
2018-07-25 12:20,31.847,24.114,36.881,12.15
2018-07-25 12:40,31.849,24.132,36.803,12.06
2018-07-25 13:00,31.891,24.191,36.724,11.92
2018-07-25 13:20,31.878,24.169,36.767,11.99
2018-07-25 13:40,31.878,24.193,36.651,11.85
2018-07-25 14:00,31.937,24.290,36.465,11.58
2018-07-25 14:20,31.949,24.327,36.336,11.42
2018-07-25 14:40,31.961,24.342,36.320,11.38
2018-07-25 15:00,31.962,24.344,36.319,11.38
2018-07-25 15:20,31.951,24.331,36.330,11.41
2018-07-25 15:40,31.966,24.325,36.432,11.51
2018-07-25 16:00,32.010,24.403,36.255,11.26
2018-07-25 16:20,31.994,24.388,36.256,11.27
2018-07-25 16:40,31.817,24.082,36.892,12.20
2018-07-25 17:00,31.923,24.244,36.617,11.76
2018-07-25 17:20,31.866,24.178,36.666,11.88
2018-07-25 17:40,31.678,23.906,37.067,12.56
2018-07-25 18:00,31.816,24.063,36.973,12.29
2018-07-25 18:20,31.762,24.001,37.015,12.40
2018-07-25 18:40,31.815,24.063,36.968,12.29
2018-07-25 19:00,31.795,24.041,36.982,12.33
2018-07-25 19:20,31.813,24.073,36.913,12.23
2018-07-25 19:40,31.819,24.079,36.912,12.22
2018-07-25 20:00,31.820,24.077,36.932,12.24
2018-07-25 20:20,31.821,24.075,36.943,12.25
2018-07-25 20:40,31.824,24.082,36.924,12.23
2018-07-25 21:00,31.838,24.097,36.923,12.21
2018-07-25 21:20,31.734,23.961,37.072,12.50
2018-07-25 21:40,31.853,24.135,36.811,12.06
2018-07-25 22:00,31.787,24.020,37.046,12.41
2018-07-25 22:20,31.745,23.836,37.697,13.19
2018-07-25 22:40,31.807,23.977,37.335,12.71
2018-07-25 23:00,31.808,24.015,37.167,12.52
2018-07-25 23:20,31.990,24.398,36.187,11.20
2018-07-25 23:40,31.913,24.246,36.561,11.71
2018-07-26 00:00,32.043,24.394,36.465,11.45
2018-07-26 00:20,31.968,24.342,36.357,11.42
2018-07-26 00:40,32.019,24.371,36.464,11.48
2018-07-26 01:00,31.953,24.314,36.421,11.51
2018-07-26 01:20,31.940,24.280,36.525,11.64
2018-07-26 01:40,31.870,24.207,36.544,11.74
2018-07-26 02:00,32.018,24.353,36.545,11.57
2018-07-26 02:20,31.977,24.376,36.233,11.27
2018-07-26 02:40,31.992,24.405,36.160,11.17
2018-07-26 03:00,31.987,24.389,36.217,11.24
2018-07-26 03:20,31.999,24.400,36.216,11.22
2018-07-26 03:40,31.999,24.401,36.214,11.22
2018-07-26 04:00,32.005,24.401,36.245,11.25
2018-07-26 04:20,31.923,24.278,36.452,11.58
2018-07-26 04:40,31.939,24.284,36.499,11.61
2018-07-26 05:00,31.960,24.333,36.359,11.43
2018-07-26 05:20,31.946,24.331,36.305,11.38
2018-07-26 05:40,31.773,23.968,37.218,12.62
2018-07-26 06:00,31.933,24.282,36.480,11.60
2018-07-26 06:20,31.911,24.210,36.729,11.90
2018-07-26 06:40,31.519,23.711,37.230,12.93
2018-07-26 07:00,31.894,24.211,36.639,11.82
2018-07-26 07:20,31.723,23.923,37.194,12.65
2018-07-26 07:40,31.760,23.980,37.106,12.51
2018-07-26 08:00,31.740,23.955,37.125,12.55
2018-07-26 08:20,31.755,23.955,37.194,12.61
2018-07-26 08:40,31.757,23.988,37.050,12.45
2018-07-26 09:00,31.797,24.018,37.097,12.45
2018-07-26 09:20,31.784,24.001,37.120,12.49
2018-07-26 09:40,31.767,23.987,37.105,12.50
2018-07-26 10:00,31.789,24.010,37.097,12.46
2018-07-26 10:20,31.835,24.059,37.083,12.39
2018-07-26 10:40,31.837,24.074,37.021,12.32
2018-07-26 11:00,31.871,24.174,36.707,11.93
2018-07-26 11:20,32.006,24.359,36.457,11.49
2018-07-26 11:40,32.008,24.440,36.067,11.04
2018-07-26 12:00,32.001,24.420,36.126,11.12
2018-07-26 12:20,31.997,24.416,36.129,11.13
2018-07-26 12:40,31.994,24.407,36.160,11.16
2018-07-26 13:00,32.003,24.419,36.146,11.14
2018-07-26 13:20,32.007,24.428,36.118,11.10
2018-07-26 13:40,31.994,24.398,36.203,11.21
2018-07-26 14:00,32.004,24.412,36.185,11.18
2018-07-26 14:20,31.994,24.398,36.203,11.21
2018-07-26 14:40,31.995,24.399,36.206,11.22
2018-07-26 15:00,31.990,24.376,36.295,11.32
2018-07-26 15:20,31.996,24.387,36.271,11.29
2018-07-26 15:40,31.998,24.388,36.274,11.29
2018-07-26 16:00,31.998,24.377,36.328,11.35
2018-07-26 16:20,31.997,24.372,36.351,11.38
2018-07-26 16:40,31.994,24.359,36.397,11.43
2018-07-26 17:00,31.994,24.360,36.394,11.43
2018-07-26 17:20,31.995,24.353,36.435,11.48
2018-07-26 17:40,31.894,24.218,36.608,11.79
2018-07-26 18:00,31.857,24.062,37.171,12.47
2018-07-26 18:20,31.772,23.972,37.198,12.60
2018-07-26 18:40,31.800,23.995,37.218,12.59
2018-07-26 19:00,31.793,24.000,37.167,12.54
2018-07-26 19:20,31.823,24.042,37.107,12.43
2018-07-26 19:40,31.816,24.030,37.130,12.47
2018-07-26 20:00,31.815,24.026,37.147,12.49
2018-07-26 20:20,31.813,24.016,37.182,12.53
2018-07-26 20:40,31.825,24.028,37.186,12.52
2018-07-26 21:00,31.822,24.023,37.192,12.53
2018-07-26 21:20,31.820,24.021,37.195,12.54
2018-07-26 21:40,31.812,24.011,37.199,12.55
2018-07-26 22:00,31.810,24.007,37.214,12.57
2018-07-26 22:20,31.828,24.029,37.191,12.52
2018-07-26 22:40,31.843,24.051,37.156,12.47
2018-07-26 23:00,31.897,24.179,36.809,12.01
2018-07-26 23:20,31.931,24.242,36.665,11.81
2018-07-26 23:40,31.926,24.236,36.672,11.82
2018-07-27 00:00,31.989,24.360,36.372,11.41
2018-07-27 00:20,31.983,24.368,36.302,11.34
2018-07-27 00:40,31.985,24.380,36.249,11.28
2018-07-27 01:00,31.971,24.346,36.349,11.41
2018-07-27 01:20,31.986,24.366,36.322,11.36
2018-07-27 01:40,31.999,24.380,36.321,11.34
2018-07-27 02:00,32.001,24.393,36.267,11.28
2018-07-27 02:20,31.982,24.379,36.238,11.27
2018-07-27 02:40,31.997,24.398,36.222,11.23
2018-07-27 03:00,32.004,24.412,36.188,11.19
2018-07-27 03:20,32.013,24.421,36.183,11.17
2018-07-27 03:40,31.954,24.324,36.379,11.46
2018-07-27 04:00,31.906,24.234,36.583,11.75
2018-07-27 04:20,31.920,24.225,36.696,11.86
2018-07-27 04:40,31.891,24.203,36.659,11.85
2018-07-27 05:00,31.907,24.226,36.631,11.80
2018-07-27 05:20,31.949,24.304,36.451,11.55
2018-07-27 05:40,31.850,24.105,36.940,12.21
2018-07-27 06:00,31.808,24.008,37.199,12.55
2018-07-27 06:20,31.808,24.006,37.206,12.56
2018-07-27 06:40,31.817,24.020,37.184,12.53
2018-07-27 07:00,31.820,24.027,37.166,12.50
2018-07-27 07:20,31.833,24.048,37.124,12.44
2018-07-27 07:40,31.842,24.071,37.061,12.36
2018-07-27 08:00,31.843,24.068,37.078,12.38
2018-07-27 08:20,31.839,24.077,37.019,12.31
2018-07-27 08:40,31.841,24.069,37.067,12.37
2018-07-27 09:00,31.820,24.050,37.057,12.38
2018-07-27 09:20,31.781,23.990,37.154,12.54
2018-07-27 09:40,31.816,24.034,37.115,12.45
2018-07-27 10:00,31.821,24.041,37.102,12.43
2018-07-27 10:20,31.817,24.038,37.096,12.43
2018-07-27 10:40,31.788,23.985,37.215,12.60
2018-07-27 11:00,31.761,23.963,37.188,12.60
2018-07-27 11:20,31.819,24.044,37.079,12.41
2018-07-27 11:40,31.859,24.108,36.967,12.23
2018-07-27 12:00,31.891,24.172,36.816,12.03
2018-07-27 12:20,31.855,24.112,36.926,12.19
2018-07-27 12:40,31.910,24.206,36.738,11.92
2018-07-27 13:00,31.896,24.169,36.851,12.06
2018-07-27 13:20,31.908,24.184,36.838,12.03
2018-07-27 13:40,31.918,24.217,36.727,11.89
2018-07-27 14:00,31.911,24.208,36.735,11.91
2018-07-27 14:20,31.882,24.156,36.843,12.07
2018-07-27 14:40,31.874,24.141,36.882,12.12
2018-07-27 15:00,31.894,24.175,36.809,12.01
2018-07-27 15:20,31.977,24.319,36.511,11.58
2018-07-27 15:40,31.967,24.302,36.548,11.64
2018-07-27 16:00,31.947,24.284,36.538,11.65
2018-07-27 16:20,31.963,24.318,36.446,11.52
2018-07-27 16:40,31.978,24.347,36.381,11.43
2018-07-27 17:00,31.991,24.379,36.286,11.31
2018-07-27 17:20,31.996,24.369,36.362,11.39
2018-07-27 17:40,31.992,24.355,36.405,11.44
2018-07-27 18:00,31.990,24.327,36.535,11.59
2018-07-27 18:20,31.988,24.239,36.953,12.07
2018-07-27 18:40,32.046,24.233,37.256,12.34
2018-07-27 19:00,31.969,24.200,37.051,12.20
2018-07-27 19:20,31.941,24.141,37.199,12.40
2018-07-27 19:40,31.900,24.114,37.132,12.37
2018-07-27 20:00,31.910,24.118,37.161,12.39
2018-07-27 20:20,31.569,23.731,37.366,13.03
2018-07-27 20:40,31.815,23.950,37.496,12.88
2018-07-27 21:00,31.825,23.934,37.615,13.00
2018-07-27 21:20,31.868,24.007,37.478,12.80
2018-07-27 21:40,31.850,23.980,37.522,12.87
2018-07-27 22:00,31.908,24.083,37.314,12.56
2018-07-27 22:20,31.923,24.152,37.062,12.26
2018-07-27 22:40,31.944,24.222,36.822,11.97
2018-07-27 23:00,31.928,24.204,36.836,12.00
2018-07-27 23:20,31.802,23.954,37.422,12.81